Location: *
(53.4003°S, 165.3236°W)
Time: 03:23:42
(UTC+00:00)

ATLAS 5 CENTAUR R/B - Pass Details

Date: 11 December 2023
Orbit: 432 x 1172 km, 63.3° (Epoch: 21 February)

Event Time Altitude Azimuth Distance (km) Brightness Sun altitude
Rises 12:03:59 0° 228° (SW) 3,747 5.9 -12.1°
Reaches altitude 10° 12:06:51 10° 230° (SW) 2,680 5.1 -12.0°
Maximum altitude 12:13:00 67° 310° (NW) 876 2.1 -11.7°
Drops below altitude 10° 12:17:54 10° 32° (NNE) 2,140 4.0 -11.5°
Enters shadow 12:19:51 - 34° (NE) 2,890 4.6 -11.4°
